• En España
  • Lista de países
  • Para 7 días
  • Temperatura del agua
  • Mapa Satelital
  • El tiempo en el mapa
  • Informadores
  • user-avatar
    Iniciar sesión

    Tiempo cada hora San Juan

    Hoy, 20 Octubre, Sábado

    Tiempo Temperatura Precipitaciones Viento Presión Humedad
    00:00 +20°C° 0 mm 3 mps 706 mmHg 79%
    01:00 +19°C° 0 mm 3 mps 706 mmHg 82%
    02:00 +19°C° 0 mm 3 mps 706 mmHg 82%
    03:00 +19°C° 0 mm 3 mps 705 mmHg 83%
    04:00 +19°C° 0 mm 3 mps 705 mmHg 83%
    05:00 +19°C° 0 mm 3 mps 705 mmHg 80%
    06:00 +19°C° 0 mm 2 mps 705 mmHg 77%
    07:00 +20°C° 0 mm 2 mps 705 mmHg 74%
    08:00 +21°C° 0 mm 3 mps 705 mmHg 68%
    09:00 +22°C° 0 mm 3 mps 705 mmHg 62%
    10:00 +25°C° 0 mm 3 mps 705 mmHg 56%
    11:00 +26°C° 0 mm 3 mps 705 mmHg 50%
    12:00 +27°C° 0 mm 3 mps 704 mmHg 43%
    13:00 +29°C° 0 mm 4 mps 704 mmHg 37%
    14:00 +29°C° 0.1 mm 4 mps 703 mmHg 37%
    15:00 +29°C° 0.1 mm 4 mps 703 mmHg 36%
    16:00 +29°C° 0.1 mm 4 mps 703 mmHg 36%
    17:00 +28°C° 0.2 mm 3 mps 703 mmHg 42%
    18:00 +27°C° 0.2 mm 3 mps 704 mmHg 47%
    19:00 +25°C° 0.2 mm 2 mps 704 mmHg 53%
    20:00 +25°C° 0 mm 2 mps 704 mmHg 55%
    21:00 +24°C° 0 mm 1 mps 705 mmHg 57%
    22:00 +24°C° 0 mm 1 mps 705 mmHg 60%
    23:00 +23°C° 0 mm 1 mps 704 mmHg 60%

    Mañana, 21 Octubre, Domingo

    Tiempo Temperatura Precipitaciones Viento Presión Humedad
    00:00 +23°C° 0 mm 2 mps 704 mmHg 60%
    01:00 +21°C° 0 mm 2 mps 704 mmHg 61%
    02:00 +21°C° 0 mm 2 mps 704 mmHg 60%
    03:00 +20°C° 0 mm 2 mps 704 mmHg 59%
    04:00 +20°C° 0 mm 2 mps 704 mmHg 59%
    05:00 +21°C° 0 mm 2 mps 704 mmHg 56%
    06:00 +23°C° 0 mm 2 mps 705 mmHg 54%
    07:00 +23°C° 0 mm 2 mps 705 mmHg 51%
    08:00 +25°C° 0 mm 3 mps 705 mmHg 47%
    09:00 +26°C° 0 mm 3 mps 705 mmHg 43%
    10:00 +28°C° 0 mm 4 mps 705 mmHg 39%
    11:00 +28°C° 0 mm 4 mps 705 mmHg 38%
    12:00 +29°C° 0 mm 5 mps 704 mmHg 37%
    13:00 +30°C° 0 mm 6 mps 704 mmHg 36%
    14:00 +29°C° 0 mm 6 mps 703 mmHg 40%
    15:00 +28°C° 0 mm 7 mps 703 mmHg 45%
    16:00 +28°C° 0 mm 7 mps 703 mmHg 49%
    17:00 +26°C° 0.1 mm 7 mps 703 mmHg 55%
    18:00 +24°C° 0.1 mm 6 mps 704 mmHg 61%
    19:00 +23°C° 0.1 mm 5 mps 704 mmHg 66%
    20:00 +22°C° 0.1 mm 5 mps 704 mmHg 68%
    21:00 +22°C° 0.1 mm 4 mps 704 mmHg 69%
    22:00 +21°C° 0.1 mm 4 mps 704 mmHg 71%
    23:00 +21°C° 0 mm 4 mps 704 mmHg 73%

    Pasado mañana, 22 Octubre, Lunes

    Tiempo Temperatura Precipitaciones Viento Presión Humedad
    00:00 +20°C° 0 mm 4 mps 703 mmHg 75%
    01:00 +20°C° 0 mm 4 mps 703 mmHg 77%
    02:00 +20°C° 0 mm 4 mps 703 mmHg 78%
    03:00 +19°C° 0 mm 4 mps 703 mmHg 79%
    04:00 +19°C° 0 mm 3 mps 703 mmHg 80%
    05:00 +19°C° 0.1 mm 3 mps 703 mmHg 78%
    06:00 +19°C° 0.1 mm 4 mps 704 mmHg 76%
    07:00 +19°C° 0.1 mm 4 mps 704 mmHg 74%
    08:00 +20°C° 0 mm 4 mps 704 mmHg 68%
    09:00 +22°C° 0 mm 4 mps 704 mmHg 62%
    10:00 +23°C° 0 mm 4 mps 704 mmHg 56%
    11:00 +25°C° 0 mm 5 mps 704 mmHg 51%
    12:00 +26°C° 0 mm 5 mps 703 mmHg 45%
    13:00 +28°C° 0 mm 5 mps 703 mmHg 39%
    14:00 +27°C° 0 mm 6 mps 703 mmHg 40%
    15:00 +27°C° 0 mm 6 mps 703 mmHg 40%
    16:00 +27°C° 0 mm 7 mps 703 mmHg 41%
    17:00 +26°C° 0 mm 7 mps 704 mmHg 48%
    18:00 +24°C° 0 mm 6 mps 705 mmHg 55%
    19:00 +22°C° 0 mm 6 mps 706 mmHg 62%
    20:00 +22°C° 0 mm 6 mps 706 mmHg 66%
    21:00 +21°C° 0 mm 6 mps 706 mmHg 70%
    22:00 +20°C° 0 mm 5 mps 707 mmHg 73%
    23:00 +20°C° 0 mm 5 mps 707 mmHg 75%

    23 Octubre, Martes

    Tiempo Temperatura Precipitaciones Viento Presión Humedad
    00:00 +19°C° 0 mm 5 mps 706 mmHg 76%
    01:00 +17°C° 0 mm 5 mps 706 mmHg 78%
    02:00 +17°C° 0 mm 5 mps 706 mmHg 78%
    03:00 +18°C° 0 mm 4 mps 706 mmHg 78%
    04:00 +17°C° 0 mm 4 mps 706 mmHg 78%
    05:00 +18°C° 0 mm 4 mps 706 mmHg 76%
    06:00 +18°C° 0 mm 4 mps 706 mmHg 73%
    07:00 +18°C° 0 mm 4 mps 707 mmHg 70%
    08:00 +19°C° 0 mm 4 mps 706 mmHg 66%
    09:00 +20°C° 0 mm 4 mps 706 mmHg 61%
    10:00 +21°C° 0 mm 3 mps 706 mmHg 56%
    11:00 +22°C° 0 mm 3 mps 705 mmHg 53%
    12:00 +24°C° 0 mm 3 mps 705 mmHg 50%
    13:00 +26°C° 0 mm 3 mps 704 mmHg 47%
    14:00 +26°C° 0 mm 3 mps 704 mmHg 47%
    15:00 +26°C° 0 mm 4 mps 704 mmHg 47%
    16:00 +26°C° 0 mm 4 mps 703 mmHg 47%
    17:00 +25°C° 0 mm 3 mps 704 mmHg 51%
    18:00 +24°C° 0 mm 3 mps 704 mmHg 54%
    19:00 +22°C° 0 mm 3 mps 705 mmHg 58%
    20:00 +23°C° 0 mm 2 mps 705 mmHg 61%
    21:00 +21°C° 0 mm 2 mps 705 mmHg 63%
    22:00 +22°C° 0 mm 1 mps 705 mmHg 65%
    23:00 +21°C° 0 mm 1 mps 705 mmHg 67%

    24 Octubre, Miércoles

    Tiempo Temperatura Precipitaciones Viento Presión Humedad
    00:00 +21°C° 0 mm 1 mps 704 mmHg 69%
    01:00 +20°C° 0 mm 1 mps 703 mmHg 71%
    02:00 +19°C° 0 mm 2 mps 703 mmHg 72%
    03:00 +19°C° 0 mm 2 mps 703 mmHg 73%
    04:00 +19°C° 0 mm 2 mps 703 mmHg 75%
    05:00 +19°C° 0 mm 2 mps 703 mmHg 69%
    06:00 +20°C° 0 mm 2 mps 704 mmHg 64%
    07:00 +21°C° 0 mm 2 mps 704 mmHg 59%
    08:00 +24°C° 0 mm 3 mps 704 mmHg 51%
    09:00 +26°C° 0 mm 4 mps 703 mmHg 43%
    10:00 +28°C° 0 mm 5 mps 703 mmHg 36%
    11:00 +29°C° 0 mm 5 mps 703 mmHg 30%
    12:00 +32°C° 0 mm 6 mps 702 mmHg 25%
    13:00 +33°C° 0 mm 6 mps 702 mmHg 20%
    14:00 +33°C° 0 mm 6 mps 701 mmHg 19%
    15:00 +34°C° 0 mm 6 mps 701 mmHg 18%
    16:00 +34°C° 0 mm 6 mps 701 mmHg 16%
    17:00 +32°C° 0 mm 5 mps 702 mmHg 20%
    18:00 +30°C° 0 mm 4 mps 702 mmHg 24%
    19:00 +28°C° 0 mm 3 mps 702 mmHg 29%
    20:00 +27°C° 0 mm 3 mps 702 mmHg 30%
    21:00 +26°C° 0 mm 3 mps 702 mmHg 31%
    22:00 +25°C° 0 mm 3 mps 702 mmHg 33%
    23:00 +25°C° 0 mm 2 mps 702 mmHg 32%

    25 Octubre, Jueves

    Tiempo Temperatura Precipitaciones Viento Presión Humedad
    00:00 +24°C° 0 mm 2 mps 702 mmHg 32%
    01:00 +24°C° 0 mm 2 mps 702 mmHg 31%
    02:00 +23°C° 0 mm 2 mps 702 mmHg 33%
    03:00 +21°C° 0 mm 2 mps 702 mmHg 35%
    04:00 +22°C° 0 mm 1 mps 702 mmHg 38%
    05:00 +23°C° 0 mm 2 mps 703 mmHg 35%
    06:00 +24°C° 0 mm 3 mps 703 mmHg 32%
    07:00 +25°C° 0 mm 4 mps 704 mmHg 30%
    08:00 +26°C° 0 mm 4 mps 704 mmHg 32%
    09:00 +27°C° 0 mm 5 mps 704 mmHg 34%
    10:00 +28°C° 0 mm 5 mps 704 mmHg 36%
    11:00 +28°C° 0 mm 6 mps 704 mmHg 37%
    12:00 +29°C° 0 mm 6 mps 703 mmHg 38%
    13:00 +29°C° 0 mm 7 mps 703 mmHg 39%
    14:00 +28°C° 0.1 mm 7 mps 703 mmHg 43%
    15:00 +27°C° 0.1 mm 7 mps 703 mmHg 46%
    16:00 +26°C° 0.1 mm 8 mps 703 mmHg 49%
    17:00 +24°C° 0.1 mm 7 mps 704 mmHg 54%
    18:00 +23°C° 0.1 mm 6 mps 705 mmHg 59%
    19:00 +22°C° 0.1 mm 6 mps 705 mmHg 63%
    20:00 +21°C° 0 mm 5 mps 706 mmHg 66%
    21:00 +21°C° 0 mm 5 mps 706 mmHg 69%
    22:00 +20°C° 0 mm 5 mps 706 mmHg 72%
    23:00 +19°C° 0 mm 4 mps 706 mmHg 74%
    Mostrar más